| time (UTC) | temp F | wind direction | speed knots | gust knots | rain 1hr in | rain 24hr in | rain mn in | humidity % | barometer mb |
| 20260509022004 | 62 | 138 | 0.0 | 0.0 | 0.00 | 0.00 | 0.00 | 45 | 1014.5 |
| 20260509021004 | 62 | 138 | 0.0 | 0.0 | 0.00 | 0.00 | 0.00 | 45 | 1014.6 |
| 20260509020004 | 62 | 256 | 0.0 | 0.9 | 0.00 | 0.00 | 0.00 | 44 | 1014.5 |
| 20260509015006 | 63 | 256 | 0.0 | 0.9 | 0.00 | 0.00 | 0.00 | 44 | 1014.6 |
| 20260509014004 | 63 | 256 | 0.9 | 0.9 | 0.00 | 0.00 | 0.00 | 43 | 1014.6 |
| 20260509013004 | 63 | 257 | 0.0 | 0.9 | 0.00 | 0.00 | 0.00 | 43 | 1014.5 |
| 20260509012004 | 63 | 257 | 0.0 | 1.7 | 0.00 | 0.00 | 0.00 | 41 | 1014.4 |
| 20260509011004 | 64 | 286 | 0.0 | 0.9 | 0.00 | 0.00 | 0.00 | 41 | 1014.0 |
| 20260509010004 | 64 | 286 | 0.0 | 0.9 | 0.00 | 0.00 | 0.00 | 39 | 1013.9 |
| 20260509005004 | 64 | 286 | 0.0 | 1.7 | 0.00 | 0.00 | 0.00 | 40 | 1013.7 |
| 20260509004005 | 64 | 286 | 0.9 | 3.5 | 0.00 | 0.00 | 0.00 | 39 | 1013.5 |
| 20260509003004 | 64 | 89 | 0.0 | 0.0 | 0.00 | 0.00 | 0.00 | 39 | 1013.4 |
| 20260509002004 | 65 | 88 | 0.0 | 0.0 | 0.00 | 0.00 | 0.00 | 38 | 1013.3 |
| 20260509000004 | 65 | 83 | 0.0 | 0.0 | 0.00 | 0.00 | 0.00 | 36 | 1013.1 |
| 20260508235004 | 65 | 84 | 0.0 | 0.0 | 0.00 | 0.00 | 0.00 | 35 | 1013.1 |
| 20260508234004 | 66 | 84 | 0.0 | 0.0 | 0.00 | 0.00 | 0.00 | 34 | 1013.0 |
| 20260508233005 | 66 | 334 | 0.0 | 1.7 | 0.00 | 0.00 | 0.00 | 35 | 1013.0 |
| 20260508232005 | 66 | 306 | 0.0 | 1.7 | 0.00 | 0.00 | 0.00 | 32 | 1012.9 |
| 20260508231004 | 66 | 306 | 0.9 | 1.7 | 0.00 | 0.00 | 0.00 | 32 | 1012.8 |
| 20260508230004 | 67 | 81 | 0.9 | 3.5 | 0.00 | 0.00 | 0.00 | 32 | 1012.7 |
| 20260508225004 | 67 | 53 | 0.9 | 1.7 | 0.00 | 0.00 | 0.00 | 32 | 1012.5 |
| 20260508224004 | 67 | 252 | 1.7 | 2.6 | 0.00 | 0.00 | 0.00 | 31 | 1012.6 |
| 20260508223004 | 67 | 81 | 1.7 | 5.2 | 0.00 | 0.00 | 0.00 | 30 | 1012.7 |
| 20260508222006 | 68 | 43 | 0.0 | 5.2 | 0.00 | 0.00 | 0.00 | 28 | 1012.7 |
| 20260508221004 | 68 | 261 | 1.7 | 6.1 | 0.00 | 0.00 | 0.00 | 27 | 1012.5 |
| 20260508220004 | 68 | 331 | 1.7 | 7.0 | 0.00 | 0.00 | 0.00 | 25 | 1012.5 |
| 20260508215004 | 68 | 103 | 0.0 | 6.1 | 0.00 | 0.00 | 0.00 | 25 | 1012.5 |
| 20260508214004 | 69 | 261 | 0.0 | 5.2 | 0.00 | 0.00 | 0.00 | 26 | 1012.5 |
| 20260508212005 | 70 | 302 | 0.9 | 6.1 | 0.00 | 0.00 | 0.00 | 24 | 1012.5 |
| 20260508211004 | 71 | 69 | 1.7 | 6.1 | 0.00 | 0.00 | 0.00 | 21 | 1012.5 |
| 20260508210005 | 71 | 229 | 0.0 | 11.3 | 0.00 | 0.00 | 0.00 | 22 | 1012.3 |
| 20260508205004 | 71 | 86 | 2.6 | 6.1 | 0.00 | 0.00 | 0.00 | 22 | 1012.5 |
| 20260508204004 | 72 | 58 | 2.6 | 7.0 | 0.00 | 0.00 | 0.00 | 20 | 1012.4 |
| 20260508203007 | 71 | 102 | 0.0 | 11.3 | 0.00 | 0.00 | 0.00 | 21 | 1012.5 |
| 20260508202004 | 71 | 240 | 7.8 | 7.8 | 0.00 | 0.00 | 0.00 | 21 | 1012.8 |
| 20260508201005 | 71 | 223 | 3.5 | 10.4 | 0.00 | 0.00 | 0.00 | 22 | 1012.7 |
| 20260508200004 | 71 | 223 | 3.5 | 6.1 | 0.00 | 0.00 | 0.00 | 21 | 1012.9 |
| 20260508195005 | 71 | 292 | 4.3 | 8.7 | 0.00 | 0.00 | 0.00 | 24 | 1012.9 |
| 20260508193005 | 71 | 281 | 3.5 | 8.7 | 0.00 | 0.00 | 0.00 | 22 | 1013.1 |
| 20260508191004 | 70 | 196 | 1.7 | 9.6 | 0.00 | 0.00 | 0.00 | 24 | 1013.3 |
| 20260508190004 | 69 | 321 | 3.5 | 10.4 | 0.00 | 0.00 | 0.00 | 23 | 1013.7 |
| 20260508184004 | 68 | 219 | 1.7 | 8.7 | 0.00 | 0.00 | 0.00 | 25 | 1013.7 |
| 20260508183004 | 69 | 299 | 2.6 | 7.0 | 0.00 | 0.00 | 0.00 | 22 | 1013.8 |
| 20260508182004 | 70 | 163 | 1.7 | 10.4 | 0.00 | 0.00 | 0.00 | 24 | 1013.8 |
| 20260508181004 | 70 | 115 | 1.7 | 4.3 | 0.00 | 0.00 | 0.00 | 24 | 1013.9 |
| 20260508175004 | 68 | 112 | 0.9 | 7.8 | 0.00 | 0.00 | 0.00 | 25 | 1014.2 |
| 20260508173004 | 69 | 21 | 3.5 | 7.8 | 0.00 | 0.00 | 0.00 | 25 | 1014.3 |
| 20260508172005 | 68 | 128 | 2.6 | 5.2 | 0.00 | 0.00 | 0.00 | 28 | 1014.3 |
| 20260508171004 | 68 | 327 | 2.6 | 7.8 | 0.00 | 0.00 | 0.00 | 24 | 1014.3 |
| 20260508170004 | 68 | 346 | 3.5 | 8.7 | 0.00 | 0.00 | 0.00 | 25 | 1014.4 |
| 20260508165004 | 67 | 61 | 3.5 | 10.4 | 0.00 | 0.00 | 0.00 | 25 | 1014.5 |
| 20260508164004 | 66 | 70 | 0.9 | 10.4 | 0.00 | 0.00 | 0.00 | 31 | 1014.6 |
| 20260508163005 | 66 | 286 | 1.7 | 11.3 | 0.00 | 0.00 | 0.00 | 28 | 1014.8 |
| 20260508162004 | 66 | 260 | 3.5 | 7.8 | 0.00 | 0.00 | 0.00 | 29 | 1014.8 |
| 20260508160004 | 65 | 52 | 3.5 | 10.4 | 0.00 | 0.00 | 0.00 | 26 | 1015.4 |
| 20260508155005 | 64 | 269 | 4.3 | 7.0 | 0.00 | 0.00 | 0.00 | 28 | 1015.6 |
| 20260508154004 | 64 | 59 | 3.5 | 6.1 | 0.00 | 0.00 | 0.00 | 29 | 1015.6 |
| 20260508153004 | 64 | 9 | 3.5 | 7.0 | 0.00 | 0.00 | 0.00 | 27 | 1015.7 |
| 20260508152004 | 62 | 113 | 1.7 | 5.2 | 0.00 | 0.00 | 0.00 | 30 | 1015.8 |
| 20260508150004 | 62 | 14 | 4.3 | 6.1 | 0.00 | 0.00 | 0.00 | 30 | 1015.9 |
| 20260508145004 | 61 | 302 | 0.0 | 4.3 | 0.00 | 0.00 | 0.00 | 32 | 1015.8 |
| 20260508144005 | 61 | 65 | 0.9 | 6.1 | 0.00 | 0.00 | 0.00 | 28 | 1015.9 |
| 20260508143004 | 60 | 82 | 3.5 | 6.1 | 0.00 | 0.00 | 0.00 | 31 | 1016.0 |
| 20260508142005 | 60 | 41 | 1.7 | 4.3 | 0.00 | 0.00 | 0.00 | 33 | 1016.1 |
| 20260508141004 | 59 | 86 | 0.9 | 3.5 | 0.00 | 0.00 | 0.00 | 34 | 1016.1 |
| 20260508140004 | 58 | 240 | 0.0 | 4.3 | 0.00 | 0.00 | 0.00 | 38 | 1016.1 |
| 20260508134004 | 55 | 254 | 2.6 | 5.2 | 0.00 | 0.00 | 0.00 | 42 | 1016.3 |
| 20260508133004 | 54 | 26 | 0.9 | 3.5 | 0.00 | 0.00 | 0.00 | 44 | 1016.3 |
| 20260508132004 | 54 | 276 | 0.0 | 3.5 | 0.00 | 0.00 | 0.00 | 48 | 1016.3 |
| 20260508131004 | 53 | 42 | 0.9 | 3.5 | 0.00 | 0.00 | 0.00 | 49 | 1016.4 |
| 20260508130004 | 52 | 279 | 0.0 | 3.5 | 0.00 | 0.00 | 0.00 | 49 | 1016.4 |
| 20260508125004 | 52 | 280 | 3.5 | 4.3 | 0.00 | 0.00 | 0.00 | 52 | 1016.5 |
| 20260508124004 | 51 | 270 | 1.7 | 3.5 | 0.00 | 0.00 | 0.00 | 54 | 1016.5 |
| 20260508123004 | 50 | 285 | 0.9 | 2.6 | 0.00 | 0.00 | 0.00 | 57 | 1016.5 |
| 20260508122004 | 49 | 58 | 0.0 | 5.2 | 0.00 | 0.00 | 0.00 | 58 | 1016.4 |
| 20260508121005 | 48 | 243 | 0.0 | 0.9 | 0.00 | 0.00 | 0.00 | 62 | 1016.3 |
| 20260508120004 | 48 | 265 | 0.0 | 1.7 | 0.00 | 0.00 | 0.00 | 63 | 1016.2 |
| 20260508115005 | 47 | 290 | 0.0 | 1.7 | 0.00 | 0.00 | 0.00 | 63 | 1016.3 |
| 20260508114004 | 47 | 290 | 0.0 | 1.7 | 0.00 | 0.00 | 0.00 | 64 | 1016.2 |
| 20260508110005 | 46 | 92 | 0.0 | 0.0 | 0.00 | 0.00 | 0.00 | 63 | 1015.9 |
| 20260508105004 | 46 | 92 | 0.0 | 0.0 | 0.00 | 0.00 | 0.00 | 62 | 1015.7 |
| 20260508104005 | 46 | 92 | 0.0 | 0.0 | 0.00 | 0.00 | 0.00 | 61 | 1015.6 |
| 20260508103004 | 46 | 92 | 0.0 | 0.0 | 0.00 | 0.00 | 0.00 | 61 | 1015.4 |
| 20260508102005 | 47 | 92 | 0.0 | 0.0 | 0.00 | 0.00 | 0.00 | 60 | 1015.3 |
| 20260508101005 | 47 | 92 | 0.0 | 0.0 | 0.00 | 0.00 | 0.00 | 59 | 1015.2 |
| 20260508100004 | 48 | 92 | 0.0 | 0.0 | 0.00 | 0.00 | 0.00 | 59 | 1015.1 |
| 20260508094003 | 48 | 92 | 0.0 | 0.0 | 0.00 | 0.00 | 0.00 | 58 | 1015.0 |
| 20260508093004 | 49 | 92 | 0.0 | 0.0 | 0.00 | 0.00 | 0.00 | 57 | 1015.1 |
| 20260508092004 | 49 | 92 | 0.0 | 0.0 | 0.00 | 0.00 | 0.00 | 57 | 1015.0 |
| 20260508091004 | 49 | 92 | 0.0 | 0.0 | 0.00 | 0.00 | 0.00 | 56 | 1014.9 |
| 20260508090004 | 50 | 92 | 0.0 | 0.0 | 0.00 | 0.00 | 0.00 | 55 | 1014.9 |
| 20260508084004 | 51 | 92 | 0.0 | 0.0 | 0.00 | 0.00 | 0.00 | 54 | 1014.8 |
| 20260508083004 | 51 | 92 | 0.0 | 0.0 | 0.00 | 0.00 | 0.00 | 54 | 1014.8 |
| 20260508082005 | 51 | 92 | 0.0 | 0.0 | 0.00 | 0.00 | 0.00 | 54 | 1014.6 |
| 20260508081004 | 51 | 92 | 0.0 | 1.7 | 0.00 | 0.00 | 0.00 | 53 | 1014.4 |
| 20260508074004 | 52 | 74 | 1.7 | 4.3 | 0.00 | 0.00 | 0.00 | 52 | 1013.9 |
| 20260508073004 | 52 | 54 | 0.9 | 4.3 | 0.00 | 0.00 | 0.00 | 52 | 1013.7 |
| 20260508072004 | 52 | 241 | 0.9 | 5.2 | 0.00 | 0.00 | 0.00 | 52 | 1013.6 |
| 20260508071004 | 52 | 305 | 0.9 | 4.3 | 0.00 | 0.00 | 0.00 | 54 | 1013.5 |
| 20260508070004 | 52 | 70 | 1.7 | 3.5 | 0.00 | 0.00 | 0.00 | 55 | 1013.2 |
| 20260508064003 | 52 | 288 | 0.0 | 5.2 | 0.00 | 0.00 | 0.00 | 59 | 1013.0 |
| 20260508062005 | 53 | 202 | 0.0 | 1.7 | 0.00 | 0.00 | 0.00 | 60 | 1012.7 |
| 20260508061004 | 53 | 173 | 0.0 | 0.0 | 0.00 | 0.00 | 0.00 | 60 | 1012.7 |
| 20260508060004 | 53 | 173 | 0.0 | 0.0 | 0.00 | 0.00 | 0.00 | 60 | 1012.5 |
| 20260508055005 | 54 | 174 | 0.0 | 1.7 | 0.00 | 0.00 | 0.00 | 59 | 1012.4 |
| 20260508054004 | 54 | 175 | 0.0 | 0.9 | 0.00 | 0.00 | 0.00 | 58 | 1012.2 |
| 20260508053004 | 54 | 175 | 0.0 | 0.9 | 0.00 | 0.00 | 0.00 | 58 | 1012.1 |
| 20260508052004 | 55 | 175 | 0.0 | 1.7 | 0.00 | 0.00 | 0.00 | 58 | 1012.1 |
| 20260508051004 | 55 | 173 | 0.9 | 4.3 | 0.00 | 0.00 | 0.00 | 58 | 1012.0 |
| 20260508050004 | 55 | 265 | 0.9 | 4.3 | 0.00 | 0.00 | 0.00 | 58 | 1011.9 |
| 20260508044005 | 55 | 267 | 0.0 | 3.5 | 0.00 | 0.00 | 0.00 | 57 | 1011.9 |
| 20260508043004 | 55 | 277 | 0.0 | 3.5 | 0.00 | 0.00 | 0.00 | 57 | 1011.8 |
| 20260508042004 | 55 | 259 | 0.0 | 1.7 | 0.00 | 0.00 | 0.00 | 57 | 1011.8 |
| 20260508041004 | 55 | 275 | 0.0 | 0.9 | 0.00 | 0.00 | 0.00 | 57 | 1011.8 |
| 20260508040004 | 55 | 275 | 0.0 | 1.7 | 0.00 | 0.00 | 0.06 | 56 | 1011.9 |
| 20260508035004 | 55 | 262 | 0.0 | 1.7 | 0.00 | 0.00 | 0.06 | 56 | 1011.7 |
| 20260508034005 | 55 | 281 | 0.0 | 3.5 | 0.00 | 0.00 | 0.06 | 56 | 1011.7 |
| 20260508032004 | 55 | 311 | 0.9 | 1.7 | 0.00 | 0.00 | 0.06 | 56 | 1011.7 |
| 20260508031004 | 55 | 292 | 0.0 | 3.5 | 0.00 | 0.00 | 0.06 | 56 | 1011.7 |
| 20260508030004 | 55 | 360 | 0.9 | 2.6 | 0.00 | 0.00 | 0.06 | 56 | 1011.7 |